STARLINK-1809 (46708 NORAD) Tracking and Keplerian Element Data

This shows tracking and keplerian element data for the satellite.

Feedback or suggestion? Click here.




ElementValue
Catalog46708
NameSTARLINK-1809
Epoch Orbit736
Epoch Day336.25001157
Epoch Year2020
RAAN254.2282
Inclination53.0556
Eccentricity0.0001131
Argument of Perigee41.3902
Mean Anonmoly261.326
Mean Motion15.62665072
Decay Rate0.00098784
L11 46708U 20073AQ 20336.25001157 .00098784 00000-0 10753-2 0 9996
L22 46708 53.0556 254.2282 0001131 41.3902 261.3260 15.62665072 7367

Live tracking and technical data element details for STARLINK-1809 (NORAD 46708). STARLINK-1809 can be tracked NOW for your location showing map with azimuth and elevation plus other details from your city location.

Track the satellite on the map from your city or location and see movement details for azimuth, elevation, latitude, longitude, range, height, and movement on the map or in text.







IsCatalogInMostPopularTable: catalog: 46708, numindb: 9
Update: records affected: 1



GetName: 46708 STARLINK-1809

Hit Count: updated at: Wed, 02 Dec 2020 05:51:36 GMT